Regional Weather Roundup
Issued by NWS

Home | Current Version | Previous Version | Text Only | Print | Product List | Glossary Off
Versions: 1 2 3 4 5 6 7 8 9 10 11 12 13 14 15 16 17 18 19 20 21 22 23 24 25 26 27 28 29 30 31 32 33 34 35 36 37 38 39 40 41 42 43 44 45 46 47 48 49 50

000
ASUS43 KFSD 202210
RWRSD

WEATHER ROUNDUP FOR SOUTH DAKOTA
NATIONAL WEATHER SERVICE SIOUX FALLS SD
400 PM CST SAT DEC 20 2014

NOTE: "FAIR" INDICATES FEW OR NO CLOUDS BELOW 12,000 FEET WITH NO
SIGNIFICANT WEATHER AND/OR OBSTRUCTIONS TO VISIBILITY.


SDZ001>005-009-010-012>017-202300-
NORTHWEST AND NORTH CENTRAL SOUTH DAKOTA

CITY           SKY/WX    TMP DP  RH WIND       PRES   REMARKS
BUFFALO          N/A     46  26  45 W13       29.79R
FAITH            N/A     49  30  48 NW5       29.85R
MOBRIDGE       PTCLDY    32  27  81 SE7       29.84S WCI  26
$$

SDZ012>016-024>037-041>051-057-063-072>074-202300-
SOUTHWEST AND SOUTH CENTRAL SOUTH DAKOTA

CITY           SKY/WX    TMP DP  RH WIND       PRES   REMARKS
RAPID CTY ARPT PTCLDY    50  26  39 CALM      29.88R
PIERRE         MOCLDY    28  24  85 SE7       29.89F WCI  21
CUSTER         CLOUDY    41  23  48 VRB6      29.87R
ELLSWORTH AFB  MOCLDY    49  24  37 CALM      29.88R
PHILIP         CLEAR     49  27  42 W9        29.88R
PINE RIDGE     MOSUNNY   46  27  47 W9        29.90R
SPEARFISH      FAIR      43  23  45 NW5       29.89S
WINNER         CLOUDY    37  28  70 SW5       29.91R
$$

SDZ004>011-016>023-039-040-202300-
NORTHEAST SOUTH DAKOTA

CITY           SKY/WX    TMP DP  RH WIND       PRES   REMARKS
ABERDEEN       CLOUDY    29  27  92 S13       29.95R FOG     WCI  19
WATERTOWN      CLOUDY    30  29  96 S10       29.95F FOG     WCI  21
$$

SDZ017-020-022-023-036>040-048>070-202300-
SOUTHEAST SOUTH DAKOTA

CITY           SKY/WX    TMP DP  RH WIND       PRES   REMARKS
SIOUX FALLS    CLOUDY    30  28  92 SE12      30.01S FOG     WCI  20
HURON          CLOUDY    30  29  96 S10       29.96F FOG     WCI  21
CHAMBERLAIN    CLOUDY    28  25  89 E6        29.93S WCI  21
MITCHELL       CLOUDY    31  30  96 S14       29.99R FOG     WCI  21
YANKTON        CLOUDY    32  30  93 S12       30.02S WCI  23
$$

ABBREVIATIONS USED IN REMARKS
   TC - TEMPERATURE IN CELSIUS
  WCI - WIND CHILL INDEX
   HX - HEAT INDEX
  VSB - VISIBILITY



USA.gov is the U.S. government's official web portal to all federal, state and local government web resources and services.